ACA405 CYUL-CYYZ

Flight info

Callsign ACA405
Flight time 1h 1m
Altitude 32000
Route BOBKI DCT MELTI DCT TORNI RAGID6
Aircraft B38M/M-SDE1FGHILORVWXY/HB1

Departure

Time 2026-05-06 21:23
Airport Montreal / Pierre Elliott Trudeau International Airport (CYUL)

Arrival

Time 2026-05-06 22:24
Airport Toronto Pearson International Airport (CYYZ)
Time Latitude Longitude Altitude Speed Heading
2026-05-06 20:52 45.45930 -73.75043 106 ft 0 kts 178°
2026-05-06 21:06 45.45948 -73.75045 107 ft 4 kts 178°
2026-05-06 21:06 45.45966 -73.75046 107 ft 4 kts 178°
2026-05-06 21:07 45.45997 -73.75058 106 ft 4 kts 134°
2026-05-06 21:07 45.46006 -73.75077 106 ft 4 kts 106°
2026-05-06 21:07 45.46008 -73.75127 107 ft 4 kts 85°
2026-05-06 21:07 45.46007 -73.75143 107 ft 1 kts 85°
2026-05-06 21:10 45.46007 -73.75140 107 ft 2 kts 85°
2026-05-06 21:11 45.46009 -73.75073 111 ft 12 kts 90°
2026-05-06 21:11 45.45986 -73.74966 106 ft 10 kts 108°
2026-05-06 21:11 45.45982 -73.74855 107 ft 12 kts 89°
2026-05-06 21:11 45.45968 -73.74726 107 ft 14 kts 108°
2026-05-06 21:12 45.45957 -73.74602 107 ft 11 kts 83°
2026-05-06 21:12 45.45981 -73.74479 106 ft 14 kts 71°
2026-05-06 21:12 45.46034 -73.74347 104 ft 17 kts 47°
2026-05-06 21:12 45.46116 -73.74225 106 ft 14 kts 45°
2026-05-06 21:13 45.46141 -73.74096 106 ft 13 kts 83°
2026-05-06 21:13 45.46202 -73.73977 106 ft 18 kts 44°
2026-05-06 21:13 45.46296 -73.73854 108 ft 13 kts 42°
2026-05-06 21:13 45.46312 -73.73834 109 ft 0 kts 42°
2026-05-06 21:16 45.46322 -73.73820 108 ft 6 kts 44°
2026-05-06 21:16 45.46387 -73.73734 110 ft 19 kts 43°
2026-05-06 21:16 45.46501 -73.73583 112 ft 23 kts 43°
2026-05-06 21:16 45.46622 -73.73425 113 ft 24 kts 43°
2026-05-06 21:17 45.46745 -73.73263 115 ft 24 kts 43°
2026-05-06 21:17 45.46872 -73.73097 117 ft 25 kts 43°
2026-05-06 21:17 45.47001 -73.72928 117 ft 24 kts 42°
2026-05-06 21:17 45.47129 -73.72761 118 ft 25 kts 43°
2026-05-06 21:18 45.47242 -73.72613 117 ft 20 kts 43°
2026-05-06 21:18 45.47349 -73.72470 117 ft 22 kts 43°
2026-05-06 21:18 45.47463 -73.72323 121 ft 23 kts 43°
2026-05-06 21:18 45.47582 -73.72164 121 ft 24 kts 43°
2026-05-06 21:19 45.47703 -73.72006 121 ft 23 kts 43°
2026-05-06 21:19 45.47802 -73.71879 124 ft 16 kts 42°
2026-05-06 21:19 45.47864 -73.71793 123 ft 10 kts 57°
2026-05-06 21:19 45.47858 -73.71712 121 ft 9 kts 122°
2026-05-06 21:20 45.47839 -73.71670 125 ft 0 kts 123°
2026-05-06 21:21 45.47837 -73.71667 125 ft 2 kts 129°
2026-05-06 21:21 45.47807 -73.71619 125 ft 12 kts 132°
2026-05-06 21:21 45.47728 -73.71557 126 ft 12 kts 201°
2026-05-06 21:22 45.47676 -73.71634 124 ft 8 kts 223°
2026-05-06 21:22 45.47647 -73.71673 127 ft 0 kts 223°
2026-05-06 21:22 45.47616 -73.71715 124 ft 18 kts 223°
2026-05-06 21:23 45.47325 -73.72097 121 ft 97 kts 223°
2026-05-06 21:23 45.46646 -73.72973 176 ft 159 kts 221°
2026-05-06 21:23 45.45763 -73.74128 773 ft 181 kts 223°
2026-05-06 21:23 45.44829 -73.75412 1715 ft 192 kts 224°
2026-05-06 21:24 45.43877 -73.76659 2725 ft 184 kts 223°
2026-05-06 21:24 45.42892 -73.77973 3245 ft 196 kts 224°
2026-05-06 21:24 45.41905 -73.79308 3985 ft 194 kts 229°
2026-05-06 21:24 45.41268 -73.81013 4506 ft 204 kts 259°
2026-05-06 21:25 45.41205 -73.83104 4982 ft 219 kts 275°
2026-05-06 21:25 45.41281 -73.85362 5439 ft 238 kts 273°
2026-05-06 21:25 45.41331 -73.87737 6124 ft 245 kts 272°
2026-05-06 21:25 45.41368 -73.90150 7031 ft 243 kts 271°
2026-05-06 21:26 45.41398 -73.92587 7724 ft 251 kts 270°
2026-05-06 21:26 45.41419 -73.95144 8298 ft 262 kts 269°
2026-05-06 21:26 45.41437 -73.97730 9242 ft 259 kts 269°
2026-05-06 21:26 45.41455 -74.00290 10124 ft 259 kts 268°
2026-05-06 21:27 45.41472 -74.02899 10692 ft 270 kts 267°
2026-05-06 21:27 45.41486 -74.05648 11109 ft 285 kts 267°
2026-05-06 21:27 45.41501 -74.08528 11573 ft 298 kts 268°
2026-05-06 21:27 45.41516 -74.11516 12208 ft 304 kts 268°
2026-05-06 21:28 45.41533 -74.14522 13041 ft 305 kts 267°
2026-05-06 21:28 45.41550 -74.17560 13789 ft 309 kts 267°
2026-05-06 21:28 45.41566 -74.20628 14515 ft 311 kts 267°
2026-05-06 21:28 45.41582 -74.23723 15249 ft 314 kts 266°
2026-05-06 21:29 45.41597 -74.26816 15975 ft 317 kts 266°
2026-05-06 21:29 45.41612 -74.30009 16734 ft 320 kts 266°
2026-05-06 21:29 45.41626 -74.33146 17443 ft 323 kts 265°
2026-05-06 21:29 45.41640 -74.36362 18143 ft 326 kts 265°
2026-05-06 21:30 45.41654 -74.39610 18736 ft 329 kts 265°
2026-05-06 21:30 45.41613 -74.42874 19324 ft 329 kts 258°
2026-05-06 21:30 45.41122 -74.46048 19885 ft 330 kts 254°
2026-05-06 21:30 45.40605 -74.49245 20426 ft 333 kts 254°
2026-05-06 21:31 45.40073 -74.52481 20997 ft 336 kts 254°
2026-05-06 21:31 45.39532 -74.55741 21560 ft 339 kts 254°
2026-05-06 21:31 45.38984 -74.59017 22114 ft 342 kts 254°
2026-05-06 21:31 45.38430 -74.62325 22666 ft 345 kts 254°
2026-05-06 21:32 45.37868 -74.65666 23218 ft 348 kts 254°
2026-05-06 21:32 45.36739 -74.72364 24156 ft 353 kts 254°
2026-05-06 21:32 45.36162 -74.75776 24595 ft 355 kts 254°
2026-05-06 21:33 45.35581 -74.79202 25034 ft 358 kts 254°
2026-05-06 21:33 45.34995 -74.82653 25471 ft 360 kts 254°
2026-05-06 21:33 45.34405 -74.86126 25914 ft 362 kts 254°
2026-05-06 21:33 45.33806 -74.89623 26331 ft 364 kts 254°
2026-05-06 21:34 45.33203 -74.93135 26741 ft 367 kts 254°
2026-05-06 21:34 45.32595 -74.96668 27144 ft 369 kts 254°
2026-05-06 21:34 45.31990 -75.00182 27536 ft 371 kts 254°
2026-05-06 21:34 45.31370 -75.03769 27928 ft 374 kts 254°
2026-05-06 21:35 45.30749 -75.07359 28310 ft 376 kts 254°
2026-05-06 21:35 45.30123 -75.10972 28690 ft 378 kts 254°
2026-05-06 21:35 45.29489 -75.14618 29056 ft 380 kts 254°
2026-05-06 21:35 45.28852 -75.18281 29461 ft 382 kts 254°
2026-05-06 21:36 45.28215 -75.21929 29980 ft 380 kts 254°
2026-05-06 21:36 45.27579 -75.25567 30405 ft 379 kts 254°
2026-05-06 21:36 45.26944 -75.29193 30816 ft 378 kts 254°
2026-05-06 21:36 45.26318 -75.32759 31225 ft 376 kts 254°
2026-05-06 21:37 45.25685 -75.36360 31641 ft 375 kts 254°
2026-05-06 21:37 45.25052 -75.39956 31854 ft 375 kts 253°
2026-05-06 21:37 45.23789 -75.47099 31849 ft 372 kts 253°
2026-05-06 21:38 45.22527 -75.54210 31846 ft 372 kts 253°
2026-05-06 21:38 45.21262 -75.61309 31843 ft 371 kts 253°
2026-05-06 21:39 45.19990 -75.68427 31843 ft 371 kts 253°
2026-05-06 21:39 45.18726 -75.75468 31843 ft 371 kts 253°
2026-05-06 21:40 45.17450 -75.82544 31846 ft 370 kts 253°
2026-05-06 21:40 45.16168 -75.89630 31845 ft 370 kts 253°
2026-05-06 21:41 45.14885 -75.96696 31849 ft 370 kts 253°
2026-05-06 21:41 45.13596 -76.03765 31854 ft 370 kts 253°
2026-05-06 21:42 45.12304 -76.10822 31857 ft 370 kts 253°
2026-05-06 21:42 45.11009 -76.17881 31861 ft 370 kts 253°
2026-05-06 21:43 45.09399 -76.24695 31858 ft 367 kts 240°
2026-05-06 21:43 45.06921 -76.31040 31860 ft 369 kts 241°
2026-05-06 21:44 45.04437 -76.37381 31860 ft 369 kts 241°
2026-05-06 21:44 45.01933 -76.43723 31863 ft 369 kts 241°
2026-05-06 21:45 44.99424 -76.50057 31859 ft 369 kts 241°
2026-05-06 21:45 44.96912 -76.56382 31869 ft 369 kts 241°
2026-05-06 21:46 44.94413 -76.62663 31872 ft 369 kts 241°
2026-05-06 21:46 44.91887 -76.69007 31873 ft 370 kts 241°
2026-05-06 21:47 44.89362 -76.75334 31874 ft 370 kts 241°
2026-05-06 21:47 44.86833 -76.81671 31874 ft 371 kts 241°
2026-05-06 21:48 44.84301 -76.88014 31879 ft 371 kts 241°
2026-05-06 21:48 44.81775 -76.94344 31874 ft 371 kts 241°
2026-05-06 21:49 44.79261 -77.00641 31882 ft 371 kts 241°
2026-05-06 21:49 44.76729 -77.06981 31882 ft 371 kts 241°
2026-05-06 21:50 44.74186 -77.13299 31881 ft 371 kts 240°
2026-05-06 21:50 44.71560 -77.19555 31880 ft 371 kts 240°
2026-05-06 21:51 44.68976 -77.25841 31882 ft 371 kts 241°
2026-05-06 21:51 44.66420 -77.32105 31887 ft 371 kts 241°
2026-05-06 21:52 44.63849 -77.38399 31890 ft 371 kts 241°
2026-05-06 21:52 44.61281 -77.44676 31887 ft 371 kts 241°
2026-05-06 21:53 44.58710 -77.50944 31891 ft 370 kts 241°
2026-05-06 21:53 44.56135 -77.57209 31892 ft 370 kts 241°
2026-05-06 21:54 44.53560 -77.63461 31896 ft 370 kts 241°
2026-05-06 21:54 44.50985 -77.69695 31891 ft 370 kts 241°
2026-05-06 21:55 44.48424 -77.75877 31897 ft 369 kts 241°
2026-05-06 21:55 44.45841 -77.82099 31896 ft 369 kts 241°
2026-05-06 21:56 44.44570 -77.85156 31827 ft 357 kts 241°
2026-05-06 21:56 44.43343 -77.88103 31760 ft 343 kts 241°
2026-05-06 21:56 44.41003 -77.93717 31188 ft 329 kts 242°
2026-05-06 21:57 44.40237 -77.95553 30871 ft 331 kts 242°
2026-05-06 21:57 44.38684 -77.99271 30264 ft 331 kts 242°
2026-05-06 21:57 44.37914 -78.01111 29976 ft 329 kts 242°
2026-05-06 21:57 44.36761 -78.03864 29460 ft 327 kts 242°
2026-05-06 21:58 44.35619 -78.06591 29005 ft 323 kts 242°
2026-05-06 21:58 44.34480 -78.09300 28527 ft 320 kts 242°
2026-05-06 21:58 44.33364 -78.11957 28163 ft 314 kts 242°
2026-05-06 21:58 44.32262 -78.14574 27787 ft 309 kts 241°
2026-05-06 21:59 44.31178 -78.17149 27397 ft 306 kts 241°
2026-05-06 21:59 44.30094 -78.19722 27007 ft 309 kts 241°
2026-05-06 21:59 44.28999 -78.22317 26624 ft 309 kts 241°
2026-05-06 21:59 44.27912 -78.24891 26249 ft 307 kts 241°
2026-05-06 22:00 44.26844 -78.27420 25883 ft 305 kts 240°
2026-05-06 22:00 44.25765 -78.29970 25509 ft 303 kts 240°
2026-05-06 22:00 44.24701 -78.32485 25161 ft 299 kts 240°
2026-05-06 22:00 44.23649 -78.34965 24798 ft 296 kts 240°
2026-05-06 22:01 44.22609 -78.37419 24436 ft 292 kts 240°
2026-05-06 22:01 44.21581 -78.39840 24101 ft 289 kts 240°
2026-05-06 22:01 44.20559 -78.42246 23767 ft 290 kts 239°
2026-05-06 22:01 44.19526 -78.44678 23409 ft 291 kts 239°
2026-05-06 22:02 44.18492 -78.47107 23011 ft 290 kts 239°
2026-05-06 22:02 44.17464 -78.49521 22660 ft 289 kts 239°
2026-05-06 22:02 44.16454 -78.51891 22317 ft 287 kts 239°
2026-05-06 22:02 44.15438 -78.54274 21991 ft 286 kts 239°
2026-05-06 22:03 44.14422 -78.56653 21662 ft 284 kts 239°
2026-05-06 22:03 44.13415 -78.59011 21329 ft 283 kts 239°
2026-05-06 22:03 44.12411 -78.61359 21010 ft 281 kts 239°
2026-05-06 22:03 44.11412 -78.63693 20680 ft 280 kts 239°
2026-05-06 22:04 44.10417 -78.66016 20352 ft 278 kts 239°
2026-05-06 22:04 44.09429 -78.68321 20029 ft 277 kts 239°
2026-05-06 22:04 44.08445 -78.70615 19715 ft 275 kts 239°
2026-05-06 22:04 44.07466 -78.72894 19397 ft 274 kts 240°
2026-05-06 22:05 44.06502 -78.75138 19078 ft 273 kts 240°
2026-05-06 22:05 44.05530 -78.77400 18756 ft 272 kts 240°
2026-05-06 22:05 44.04563 -78.79649 18449 ft 271 kts 240°
2026-05-06 22:05 44.03560 -78.81864 18075 ft 271 kts 239°
2026-05-06 22:06 44.02588 -78.83991 17738 ft 269 kts 239°
2026-05-06 22:06 44.01588 -78.86181 17450 ft 267 kts 239°
2026-05-06 22:06 44.00596 -78.88356 17178 ft 267 kts 239°
2026-05-06 22:06 43.99602 -78.90533 16858 ft 266 kts 239°
2026-05-06 22:07 43.98610 -78.92704 16556 ft 266 kts 239°
2026-05-06 22:07 43.97620 -78.94871 16242 ft 266 kts 239°
2026-05-06 22:07 43.96629 -78.97040 15929 ft 265 kts 239°
2026-05-06 22:07 43.95653 -78.99171 15621 ft 265 kts 239°
2026-05-06 22:08 43.94667 -79.01326 15306 ft 264 kts 239°
2026-05-06 22:08 43.93681 -79.03476 15047 ft 262 kts 239°
2026-05-06 22:08 43.92698 -79.05615 14761 ft 263 kts 239°
2026-05-06 22:08 43.91716 -79.07748 14503 ft 262 kts 239°
2026-05-06 22:09 43.90740 -79.09869 14232 ft 262 kts 239°
2026-05-06 22:09 43.89760 -79.11996 13968 ft 261 kts 239°
2026-05-06 22:09 43.88779 -79.14124 13687 ft 261 kts 239°
2026-05-06 22:09 43.87800 -79.16245 13469 ft 261 kts 239°
2026-05-06 22:10 43.86830 -79.18346 13263 ft 262 kts 240°
2026-05-06 22:10 43.85838 -79.20492 12959 ft 261 kts 240°
2026-05-06 22:10 43.84858 -79.22611 12609 ft 261 kts 240°
2026-05-06 22:10 43.83891 -79.24700 12256 ft 260 kts 240°
2026-05-06 22:11 43.82903 -79.26835 11893 ft 259 kts 240°
2026-05-06 22:11 43.81949 -79.28893 11535 ft 257 kts 240°
2026-05-06 22:11 43.80986 -79.30968 11175 ft 254 kts 240°
2026-05-06 22:11 43.80034 -79.33019 10821 ft 252 kts 240°
2026-05-06 22:12 43.79093 -79.35039 10508 ft 247 kts 238°
2026-05-06 22:12 43.77860 -79.36693 10250 ft 249 kts 220°
2026-05-06 22:12 43.76472 -79.38078 10068 ft 246 kts 221°
2026-05-06 22:12 43.75080 -79.39469 9720 ft 247 kts 221°
2026-05-06 22:13 43.73684 -79.40849 9350 ft 247 kts 220°
2026-05-06 22:13 43.72285 -79.42221 9009 ft 248 kts 220°
2026-05-06 22:13 43.70856 -79.43618 8650 ft 252 kts 220°
2026-05-06 22:13 43.69426 -79.45008 8436 ft 249 kts 220°
2026-05-06 22:14 43.68034 -79.46361 8302 ft 240 kts 220°
2026-05-06 22:14 43.66690 -79.47663 8165 ft 232 kts 220°
2026-05-06 22:14 43.65376 -79.48937 8063 ft 232 kts 220°
2026-05-06 22:14 43.64041 -79.50210 7967 ft 234 kts 220°
2026-05-06 22:15 43.62703 -79.51484 7903 ft 235 kts 220°
2026-05-06 22:15 43.61375 -79.52747 7801 ft 234 kts 219°
2026-05-06 22:15 43.60033 -79.54025 7737 ft 234 kts 220°
2026-05-06 22:15 43.58840 -79.55519 7646 ft 230 kts 231°
2026-05-06 22:16 43.57743 -79.57141 7574 ft 231 kts 231°
2026-05-06 22:16 43.56643 -79.58756 7507 ft 232 kts 230°
2026-05-06 22:16 43.55533 -79.60377 7431 ft 232 kts 230°
2026-05-06 22:16 43.54422 -79.61997 7345 ft 233 kts 230°
2026-05-06 22:17 43.53300 -79.63630 6961 ft 236 kts 230°
2026-05-06 22:17 43.52161 -79.65285 6551 ft 239 kts 230°
2026-05-06 22:17 43.51025 -79.66935 6171 ft 239 kts 230°
2026-05-06 22:17 43.49877 -79.68600 5776 ft 239 kts 230°
2026-05-06 22:18 43.48732 -79.70261 5373 ft 238 kts 230°
2026-05-06 22:18 43.47729 -79.72032 4973 ft 232 kts 249°
2026-05-06 22:18 43.47476 -79.74161 4566 ft 226 kts 279°
2026-05-06 22:18 43.48074 -79.76102 4261 ft 219 kts 306°
2026-05-06 22:19 43.49029 -79.77667 3998 ft 213 kts 310°
2026-05-06 22:19 43.50054 -79.79108 3690 ft 210 kts 324°
2026-05-06 22:19 43.51425 -79.79691 3390 ft 209 kts 358°
2026-05-06 22:19 43.52831 -79.79215 3100 ft 208 kts 19°
2026-05-06 22:20 43.54123 -79.78465 3041 ft 192 kts 20°
2026-05-06 22:20 43.55274 -79.77679 3037 ft 181 kts 28°
2026-05-06 22:20 43.56281 -79.76603 3034 ft 184 kts 39°
2026-05-06 22:20 43.57174 -79.75330 3023 ft 185 kts 44°
2026-05-06 22:21 43.58055 -79.74025 2891 ft 187 kts 43°
2026-05-06 22:21 43.58947 -79.72728 2656 ft 187 kts 43°
2026-05-06 22:21 43.59819 -79.71461 2445 ft 176 kts 43°
2026-05-06 22:21 43.60638 -79.70272 2217 ft 164 kts 43°
2026-05-06 22:22 43.61391 -79.69180 1992 ft 153 kts 43°
2026-05-06 22:22 43.62122 -79.68121 1789 ft 152 kts 43°
2026-05-06 22:22 43.62124 -79.68118 1789 ft 152 kts 43°
2026-05-06 22:22 43.62808 -79.67125 1577 ft 152 kts 42°
2026-05-06 22:23 43.63536 -79.66081 1310 ft 151 kts 43°
2026-05-06 22:23 43.64250 -79.65039 1130 ft 146 kts 43°
2026-05-06 22:23 43.64937 -79.64035 921 ft 144 kts 44°
2026-05-06 22:23 43.65613 -79.63055 733 ft 140 kts 45°
2026-05-06 22:24 43.66289 -79.62070 580 ft 135 kts 43°
2026-05-06 22:24 43.66863 -79.61242 567 ft 103 kts 46°
2026-05-06 22:24 43.67274 -79.60645 571 ft 59 kts 46°
2026-05-06 22:24 43.67477 -79.60442 565 ft 22 kts 17°
2026-05-06 22:25 43.67571 -79.60404 568 ft 11 kts 16°
2026-05-06 22:25 43.67581 -79.60400 569 ft 0 kts 15°
2026-05-06 22:25 43.67582 -79.60400 569 ft 1 kts 15°
2026-05-06 22:26 43.67596 -79.60394 567 ft 0 kts 16°
2026-05-06 22:27 43.67601 -79.60396 569 ft 3 kts 346°
2026-05-06 22:27 43.67605 -79.60481 563 ft 16 kts 251°
2026-05-06 22:27 43.67544 -79.60578 567 ft 13 kts 228°
2026-05-06 22:28 43.67479 -79.60674 566 ft 15 kts 227°
2026-05-06 22:28 43.67425 -79.60775 568 ft 11 kts 259°
2026-05-06 22:28 43.67461 -79.60846 563 ft 9 kts 318°
2026-05-06 22:28 43.67510 -79.60901 567 ft 9 kts 337°
2026-05-06 22:29 43.67572 -79.60872 568 ft 11 kts 42°
2026-05-06 22:29 43.67629 -79.60793 568 ft 12 kts 46°
2026-05-06 22:29 43.67691 -79.60781 569 ft 10 kts 325°
2026-05-06 22:29 43.67743 -79.60850 564 ft 9 kts 297°
2026-05-06 22:30 43.67736 -79.60926 567 ft 5 kts 247°
2026-05-06 22:30 43.67723 -79.60966 568 ft 2 kts 245°
2026-05-06 22:30 43.67720 -79.60974 569 ft 0 kts 245°